Cortez, CO

8:19 AM MDT on August 27, 2016 (GMT -0600)
Cortez Municipal

Weather History for KCEZ - October, 2012

Change the Weather History Date:

Monday, October 8, 2012

  Actual Average Record
Temperature  
Mean Temperature 49 °F 52 °F  
Max Temperature 71 °F 69 °F 78 °F (1996)
Min Temperature 26 °F 34 °F 24 °F (2007)
Degree Days  
Heating Degree Days 16 13  
Month to date heating degree days 72 97  
Since 1 July heating degree days 179 269  
Cooling Degree Days 0 0  
Month to date cooling degree days 0 0  
Year to date cooling degree days 746 426  
Moisture  
Dew Point 9 °F    
Average Humidity 27    
Maximum Humidity 46    
Minimum Humidity 8    
Precipitation  
Precipitation 0.00 in 0.05 in 0.20 in (2006)
Month to date precipitation 0.00 0.43  
Year to date precipitation 5.92 10.65  
Sea Level Pressure  
Sea Level Pressure 30.05 in    
Wind  
Wind Speed 5 mph (NE)    
Max Wind Speed 14 mph    
Max Gust Speed 18 mph    
Visibility 10 miles    
Events      
T = Trace of Precipitation, MM = Missing Value Source: NWS Daily Summary

Daily Weather History Graph

Daily Weather History Graph

Search for Another Location

Airport or City:

Trip Planner

Search our weather history database for the weather conditions in past years. The results will help you decide how hot, cold, wet, or windy it might be!

Date:

Astronomy

Oct. 08, 2012 Rise Set
Actual Time 7:16 AM MDT 6:46 PM MDT
Civil Twilight 6:50 AM MDT 7:12 PM MDT
Nautical Twilight 6:20 AM MDT 7:42 PM MDT
Astronomical Twilight 5:50 AM MDT 8:13 PM MDT
Moon 12:07 AM MDT (10/8) 2:30 PM MDT (10/8)
Length of Visible Light 12h 22m
Length of Day
11h 29m
Last Quarter, 46% of the Moon is Illuminated
Oct 8
Last Quarter
Oct 15
New
Oct 21
First Quarter
Oct 29
Full
Nov 6
Last Quarter

Hourly Weather History & Observations

Time (MDT) Temp. Windchill Dew Point Humidity Pressure Visibility Wind Dir Wind Speed Gust Speed Precip Events Conditions
12:53 AM 28.9 °F 21.9 °F 7.0 °F 40% 30.08 in 10.0 mi ENE 6.9 mph - N/A   Clear
1:53 AM 28.0 °F 20.0 °F 6.1 °F 39% 30.09 in 10.0 mi ENE 8.1 mph - N/A   Clear
2:53 AM 27.0 °F 19.5 °F 5.0 °F 39% 30.08 in 10.0 mi ENE 6.9 mph - N/A   Clear
3:53 AM 28.9 °F 21.9 °F 3.9 °F 35% 30.06 in 10.0 mi East 6.9 mph - N/A   Clear
4:53 AM 28.0 °F - 8.1 °F 43% 30.07 in 10.0 mi Calm Calm - N/A   Clear
5:53 AM 28.0 °F 22.8 °F 8.1 °F 43% 30.08 in 10.0 mi ENE 4.6 mph - N/A   Clear
6:53 AM 28.9 °F 25.2 °F 7.0 °F 40% 30.11 in 10.0 mi NE 3.5 mph - N/A   Clear
7:53 AM 28.9 °F - 10.0 °F 45% 30.15 in 10.0 mi Calm Calm - N/A   Clear
8:53 AM 41.0 °F - 7.0 °F 25% 30.14 in 10.0 mi Calm Calm - N/A   Clear
9:53 AM 48.9 °F - 6.1 °F 18% 30.12 in 10.0 mi East 3.5 mph - N/A   Clear
10:53 AM 55.0 °F - 6.1 °F 14% 30.10 in 10.0 mi Calm Calm - N/A   Clear
11:53 AM 60.1 °F - 1.9 °F 10% 30.08 in 10.0 mi Variable 4.6 mph - N/A   Clear
12:53 PM 64.0 °F - 6.1 °F 10% 30.04 in 10.0 mi SSW 3.5 mph - N/A   Clear
1:53 PM 66.9 °F - 5.0 °F 9% 30.01 in 10.0 mi South 5.8 mph - N/A   Clear
2:53 PM 70.0 °F - 6.1 °F 8% 29.97 in 10.0 mi WNW 12.7 mph - N/A   Clear
3:53 PM 70.0 °F - 9.0 °F 9% 29.96 in 10.0 mi WNW 10.4 mph 16.1 mph N/A   Clear
4:53 PM 69.1 °F - 10.0 °F 10% 29.96 in 10.0 mi WNW 9.2 mph - N/A   Clear
5:53 PM 66.0 °F - 12.9 °F 13% 29.98 in 10.0 mi WNW 6.9 mph - N/A   Clear
6:53 PM 61.0 °F - 14.0 °F 16% 30.00 in 10.0 mi Calm Calm - N/A   Clear
8:53 PM 46.9 °F - 19.9 °F 34% 30.02 in 10.0 mi ENE 4.6 mph - N/A   Clear
9:53 PM 45.0 °F 41.8 °F 17.1 °F 33% 30.01 in 10.0 mi NE 5.8 mph - N/A   Clear
11:53 PM 39.9 °F 35.8 °F 18.0 °F 41% 30.00 in 10.0 mi East 5.8 mph - N/A   Clear